Waarnemingen

Advertentie
Mijn weer
Albi, Frankrijk (7632): temperatuur & dauwpunt: 14.05.2019 05:00:00 - 20.05.2019 05:00:00 (CEST)Albi, Frankrijk (7632): temperatuur 5cm: 14.05.2019 05:00:00 - 20.05.2019 05:00:00 (CEST)Albi, Frankrijk (7632): temperatuur -20cm & temperatuur -100cm: 14.05.2019 05:00:00 - 20.05.2019 05:00:00 (CEST)Albi, Frankrijk (7632): windsnelheid & windstoten: 14.05.2019 05:00:00 - 20.05.2019 05:00:00 (CEST)Albi, Frankrijk (7632): windrichting: 14.05.2019 05:00:00 - 20.05.2019 05:00:00 (CEST)Albi, Frankrijk (7632): luchtdruk: 14.05.2019 05:00:00 - 20.05.2019 05:00:00 (CEST)Albi, Frankrijk (7632): zicht: 14.05.2019 05:00:00 - 20.05.2019 05:00:00 (CEST)Albi, Frankrijk (7632): Zonneschijnduur: 14.05.2019 05:00:00 - 20.05.2019 05:00:00 (CEST)Albi, Frankrijk (7632): neerslag: 14.05.2019 05:00:00 - 20.05.2019 05:00:00 (CEST)
Datum & Tijd tt [°C] td [°C] tt 5cm [°C] tt -20cm [°C] tt -100cm [°C] ff [km/u] ff [kn] fx [km/u] fx [kn] dd ppp [hPa] vv [km] sd [min] rr [mm]
20.05.2019 05:00:00 - - - - - - - - - - - - - -
20.05.2019 04:00:00 11,6 9,3 11,5 15,5 14,4 15 8 29 16 WZW 1012,7 20 0 0,0
20.05.2019 03:00:00 12,0 9,6 12,0 15,5 14,4 16 8 25 13 WZW 1012,6 20 0 0,0
20.05.2019 02:00:00 11,9 10,1 11,5 15,5 14,4 13 7 21 11 WZW 1012,6 20 0 0,0
20.05.2019 01:00:00 11,6 9,8 11,5 15,4 14,4 13 7 23 13 WZW 1012,9 20 0 0,0
20.05.2019 00:00:00 11,7 9,6 11,7 15,5 14,4 11 6 22 12 WZW 1012,9 20 0 0,0
19.05.2019 23:00:00 12,0 9,2 11,9 15,5 14,4 12 6 29 15 WZW 1012,8 20 0 0,0
19.05.2019 22:00:00 13,2 8,1 12,9 15,4 14,4 18 10 33 18 W 1011,9 20 0 0,0
19.05.2019 21:00:00 13,7 9,9 13,6 15,4 14,4 11 6 25 13 W 1010,9 20 7 0,0
19.05.2019 20:00:00 13,9 9,3 14,1 15,4 14,4 11 6 22 12 W 1010,5 20 0 0,0
19.05.2019 19:00:00 13,9 10,1 13,5 15,4 14,4 8 4 26 14 W 1010,3 20 0 0,0
19.05.2019 18:00:00 13,9 8,7 14,5 15,4 14,4 19 10 33 18 W 1010,3 20 0 0,0
19.05.2019 17:00:00 14,4 9,4 14,9 15,4 14,4 14 8 27 15 W 1010,2 20 0 0,0
19.05.2019 16:00:00 14,1 11,4 11,7 15,3 14,4 10 6 27 15 W 1010,2 19 4 0,6
19.05.2019 15:00:00 14,2 8,2 14,2 15,3 14,4 10 5 25 14 W 1010,1 20 0 0,0
19.05.2019 14:00:00 13,5 8,3 13,5 15,3 14,4 16 8 25 13 W 1010,1 20 0 0,0
19.05.2019 13:00:00 13,6 8,2 14,2 15,3 14,4 11 6 24 13 WZW 1010,1 20 5 0,0
19.05.2019 12:00:00 12,4 7,9 12,0 15,4 14,4 14 8 24 13 W 1010,3 20 0 0,0
19.05.2019 11:00:00 11,5 8,0 12,6 15,4 14,4 14 8 20 11 ZW 1010,3 20 0 0,0
19.05.2019 10:00:00 11,5 8,4 12,5 15,4 14,4 12 7 18 10 ZW 1010,1 20 12 0,0
19.05.2019 09:00:00 10,4 7,8 10,7 15,5 14,4 8 4 13 7 ZW 1010,1 20 1 0,0
19.05.2019 08:00:00 9,5 7,6 9,4 15,5 14,4 8 4 10 6 ZW 1010,2 20 0 0,0
19.05.2019 07:00:00 9,2 7,5 9,1 15,5 14,4 8 4 14 8 W 1010,0 20 0 0,0
19.05.2019 06:00:00 9,3 7,6 9,3 15,6 14,4 8 5 13 7 WZW 1009,8 20 0 0,0
19.05.2019 05:00:00 9,6 7,5 9,5 15,6 14,4 6 3 18 10 WZW 1009,6 20 0 0,0
19.05.2019 04:00:00 10,0 7,9 10,0 15,6 14,4 9 5 16 8 WZW 1009,8 20 0 0,0
19.05.2019 03:00:00 10,1 8,0 10,0 15,6 14,4 10 5 18 10 WZW 1010,0 20 0 0,0
19.05.2019 02:00:00 10,0 8,3 9,6 15,6 14,4 6 3 16 9 WZW 1010,5 20 0 0,0
19.05.2019 01:00:00 9,9 8,0 9,8 15,6 14,3 10 6 15 8 ZW 1010,8 20 0 0,0
19.05.2019 00:00:00 10,1 7,9 9,7 15,6 14,4 6 3 14 7 ZW 1011,1 20 0 0,0
18.05.2019 23:00:00 10,3 7,9 9,4 15,6 14,4 6 4 16 9 WZW 1011,1 20 0 0,0
18.05.2019 22:00:00 10,2 7,3 9,4 15,6 14,3 9 5 25 13 WZW 1010,7 20 0 0,0
18.05.2019 21:00:00 12,5 7,4 11,8 15,5 14,3 15 8 35 19 WZW 1009,7 20 44 0,0
18.05.2019 20:00:00 14,1 7,4 12,6 15,4 14,4 17 9 32 17 WZW 1008,8 20 31 0,2
18.05.2019 19:00:00 14,1 9,1 11,9 15,3 14,3 12 6 23 12 WNW 1008,3 20 0 1,8
18.05.2019 18:00:00 15,1 7,9 16,6 15,3 14,3 11 6 23 12 N 1007,7 20 9 0,0
18.05.2019 17:00:00 16,2 6,6 16,3 15,3 14,3 8 5 51 27 NW 1007,3 20 20 0,0
18.05.2019 16:00:00 17,0 7,3 18,4 15,3 14,3 13 7 27 14 ZW 1007,5 20 46 0,0
18.05.2019 15:00:00 15,0 7,5 17,5 15,3 14,3 12 7 21 11 WZW 1008,1 20 12 0,0
18.05.2019 14:00:00 13,4 8,5 12,3 15,3 14,3 10 5 19 10 ZW 1008,5 20 0 0,0
18.05.2019 13:00:00 12,5 8,6 12,6 15,3 14,3 10 5 17 9 WZW 1008,9 20 0 0,0
18.05.2019 12:00:00 11,9 8,6 11,9 15,4 14,3 12 6 21 11 ZW 1008,9 20 0 0,0
18.05.2019 11:00:00 11,5 8,5 11,1 15,4 14,3 14 8 23 12 W 1008,9 20 0 0,0
18.05.2019 10:00:00 10,6 9,5 10,0 15,4 14,3 10 6 23 12 WZW 1008,8 20 0 0,2
18.05.2019 09:00:00 9,9 8,8 9,8 15,5 14,3 15 8 26 14 WZW 1008,9 7 0 0,4
18.05.2019 08:00:00 10,0 8,9 9,8 15,5 14,3 13 7 23 12 ZW 1008,7 20 0 0,0
18.05.2019 07:00:00 9,9 8,8 9,7 15,5 14,3 16 8 27 14 ZW 1008,3 20 0 0,0
18.05.2019 06:00:00 10,1 9,0 9,8 15,6 14,3 15 8 29 15 ZW 1007,8 20 0 0,0
18.05.2019 05:00:00 10,4 9,6 10,2 15,6 14,3 13 7 20 11 WZW 1007,7 13 0 0,6
18.05.2019 04:00:00 10,4 9,6 10,0 15,7 14,3 9 5 22 12 WZW 1008,0 9 0 1,0
18.05.2019 03:00:00 10,3 9,4 10,0 15,7 14,3 12 7 23 12 ZW 1008,5 4,9 0 2,0
18.05.2019 02:00:00 10,4 9,3 10,0 15,8 14,3 13 7 29 16 ZW 1008,6 11 0 0,2
18.05.2019 01:00:00 11,0 10,1 10,6 15,8 14,2 16 9 31 17 WZW 1008,1 18 0 0,2
18.05.2019 00:00:00 11,0 10,1 10,7 15,8 14,2 13 7 32 17 WZW 1008,1 12 0 1,9
17.05.2019 23:00:00 11,3 10,5 10,9 15,9 14,2 16 9 25 13 ZW 1007,7 6 0 1,2
17.05.2019 22:00:00 11,4 10,3 11,0 15,9 14,3 14 7 35 19 W 1007,3 10 0 0,6
17.05.2019 21:00:00 11,7 10,9 11,5 15,9 14,2 4 2 20 11 WNW 1006,5 15 0 1,4
17.05.2019 20:00:00 11,6 10,7 11,4 16,0 14,2 0 0 11 6 N 1006,1 6 0 2,0
17.05.2019 19:00:00 11,5 10,2 11,3 16,0 14,2 9 5 41 22 WZW 1006,2 16 0 0,6
17.05.2019 18:00:00 11,5 10,4 10,4 16,0 14,2 9 5 35 19 ZZW 1005,8 9 0 1,0
17.05.2019 17:00:00 10,7 9,1 10,4 16,0 14,2 19 10 34 19 ZO 1005,4 19 0 0,6
17.05.2019 16:00:00 11,0 9,3 10,9 16,1 14,2 10 6 23 12 ZO 1005,5 11 0 1,4
17.05.2019 15:00:00 11,4 9,5 11,2 16,1 14,2 10 5 22 12 OZO 1005,3 10 0 1,9
17.05.2019 14:00:00 11,7 9,8 11,4 16,1 14,2 10 5 19 10 OZO 1004,9 10 0 2,4
17.05.2019 13:00:00 11,7 9,8 11,1 16,1 14,2 10 6 24 13 O 1004,3 7 0 1,4
17.05.2019 12:00:00 12,0 9,6 11,0 16,2 14,2 9 5 26 14 O 1003,7 19 0 0,4
17.05.2019 11:00:00 12,1 8,6 10,5 16,2 14,2 12 6 31 17 O 1003,1 9 0 1,0
17.05.2019 10:00:00 13,7 7,9 11,4 16,2 14,2 15 8 36 19 O 1002,6 17 0 0,2
17.05.2019 09:00:00 13,6 9,4 12,7 16,2 14,2 13 7 20 11 NO 1002,4 20 0 0,0
17.05.2019 08:00:00 13,7 9,1 12,9 16,3 14,2 9 5 24 13 ONO 1002,1 20 0 0,0
17.05.2019 07:00:00 13,6 9,8 12,4 16,3 14,2 16 8 26 14 ONO 1001,3 20 0 0,0
17.05.2019 06:00:00 13,7 10,7 12,3 16,4 14,2 11 6 20 11 NNO 1001,8 20 0 0,4
17.05.2019 05:00:00 14,0 9,8 13,3 16,4 14,1 11 6 23 13 ONO 1002,3 20 0 0,0
17.05.2019 04:00:00 14,1 7,8 13,6 16,4 14,1 10 6 21 11 NO 1003,2 20 0 0,0
17.05.2019 03:00:00 13,9 6,5 13,3 16,4 14,2 12 7 25 14 NO 1004,5 20 0 0,0
17.05.2019 02:00:00 13,9 4,7 13,4 16,4 14,1 15 8 26 14 ONO 1005,2 20 0 0,0
17.05.2019 01:00:00 14,4 3,8 13,1 16,4 14,1 13 7 21 11 ONO 1005,8 20 0 0,0
17.05.2019 00:00:00 14,3 4,3 13,1 16,4 14,1 10 5 17 9 O 1006,5 20 0 0,0
16.05.2019 23:00:00 16,5 5,4 13,5 16,3 14,1 12 7 16 9 ONO 1006,5 20 0 0,0
16.05.2019 22:00:00 18,1 5,3 16,4 16,2 14,1 2 1 16 8 ZZO 1006,0 20 0 0,0
16.05.2019 21:00:00 19,4 6,1 18,2 16,2 14,1 8 4 15 8 ZZO 1005,7 20 9 0,0
16.05.2019 20:00:00 22,5 2,0 23,2 16,0 14,1 3 1 10 6 WZW 1005,3 20 53 0,0
16.05.2019 19:00:00 22,9 3,4 25,1 15,9 14,1 3 2 17 9 ZZW 1005,6 20 48 0,0
16.05.2019 18:00:00 22,6 3,7 24,0 15,8 14,1 6 3 14 8 NW 1006,1 20 29 0,0
16.05.2019 17:00:00 21,8 3,4 24,0 15,7 14,1 5 3 18 10 WNW 1006,6 20 32 0,0
16.05.2019 16:00:00 22,1 2,7 24,5 15,6 14,1 7 4 15 8 N 1007,4 20 19 0,0
16.05.2019 15:00:00 22,3 3,9 26,8 15,5 14,1 9 5 18 10 W 1007,9 20 37 0,0
16.05.2019 14:00:00 21,5 2,7 26,7 15,5 14,1 6 3 15 8 ZZW 1008,8 20 50 0,0
16.05.2019 13:00:00 21,0 2,7 26,9 15,5 14,1 5 3 13 7 ZZO 1009,6 20 60 0,0
16.05.2019 12:00:00 19,7 2,5 26,4 15,5 14,1 5 3 12 7 O 1010,2 20 60 0,0
16.05.2019 11:00:00 18,2 3,6 22,9 15,6 14,1 3 2 14 8 NNO 1011,3 20 60 0,0
16.05.2019 10:00:00 16,3 4,0 16,6 15,7 14,1 10 5 21 12 O 1011,8 20 58 0,0
16.05.2019 09:00:00 12,7 2,5 10,0 15,7 14,1 13 7 21 11 ONO 1012,4 20 39 0,0
16.05.2019 08:00:00 9,9 3,0 8,6 15,8 14,1 9 5 15 8 ONO 1012,8 20 35 0,0
16.05.2019 07:00:00 7,4 3,4 4,3 15,9 14,1 7 4 10 5 O 1013,2 20 12 0,0
16.05.2019 06:00:00 5,7 2,9 4,2 16,0 14,0 4 2 7 4 O 1013,0 20 0 0,0
16.05.2019 05:00:00 6,7 3,1 3,6 16,0 14,1 3 2 6 3 O 1013,5 20 0 0,0
16.05.2019 04:00:00 9,3 2,8 6,0 16,1 14,1 4 2 10 5 NO 1013,7 20 0 0,0
16.05.2019 03:00:00 10,7 3,2 6,0 16,1 14,0 6 3 12 7 NNO 1014,1 20 0 0,0
16.05.2019 02:00:00 9,7 3,4 6,1 16,2 14,1 4 2 7 4 NO 1014,5 20 0 0,0
16.05.2019 01:00:00 11,4 3,2 7,5 16,1 14,1 0 0 10 5 N 1014,8 20 0 0,0
16.05.2019 00:00:00 13,3 2,8 10,1 16,1 14,0 5 3 18 10 NO 1014,8 20 0 0,0
15.05.2019 23:00:00 15,4 1,5 12,8 16,1 14,0 10 5 19 10 ONO 1014,8 20 0 0,0
15.05.2019 22:00:00 17,4 0,5 15,5 16,0 14,0 7 4 16 9 NNO 1014,3 20 0 0,0
15.05.2019 21:00:00 19,6 -0,4 17,9 16,0 14,0 12 6 24 13 NO 1013,5 20 36 0,0
15.05.2019 20:00:00 21,1 -0,9 21,5 15,9 14,0 8 5 24 13 N 1012,9 20 60 0,0
15.05.2019 19:00:00 21,7 -2,3 26,8 15,8 14,0 10 5 24 13 N 1012,9 20 60 0,0
15.05.2019 18:00:00 21,8 -3,6 26,5 15,7 14,0 17 9 34 18 NNO 1012,8 20 60 0,0
15.05.2019 17:00:00 21,7 -5,2 27,0 15,6 14,0 18 10 35 19 NNO 1012,9 20 60 0,0
15.05.2019 16:00:00 21,6 -8,0 27,9 15,5 14,0 19 11 32 17 NNO 1013,4 20 60 0,0
15.05.2019 15:00:00 21,0 -5,8 27,0 15,4 14,0 16 9 32 18 N 1013,7 20 60 0,0
15.05.2019 14:00:00 20,0 -6,6 26,4 15,4 14,0 15 8 32 17 NNO 1014,2 20 60 0,0
15.05.2019 13:00:00 19,2 -3,7 26,3 15,4 13,9 14 7 31 17 N 1014,5 20 60 0,0
15.05.2019 12:00:00 17,9 -1,4 24,1 15,5 14,0 13 7 25 14 N 1014,9 20 60 0,0
15.05.2019 11:00:00 17,2 -2,5 22,9 15,5 14,0 10 5 21 11 O 1015,1 20 60 0,0
15.05.2019 10:00:00 15,0 0,0 17,9 15,6 14,0 6 3 14 7 NNO 1015,6 18 60 0,0
15.05.2019 09:00:00 12,8 0,2 13,6 15,7 14,0 8 5 15 8 NO 1015,8 20 60 0,0
15.05.2019 08:00:00 9,9 2,0 6,1 15,7 13,9 3 2 8 4 OZO 1016,0 20 60 0,0
15.05.2019 07:00:00 6,1 2,0 1,3 15,8 14,0 3 2 6 4 O 1016,2 20 11 0,0
15.05.2019 06:00:00 5,9 1,6 2,2 15,9 14,0 2 1 4 2 ZO 1016,0 20 0 0,0
15.05.2019 05:00:00 6,5 1,2 2,9 15,9 13,9 3 1 7 4 ZO 1015,9 20 0 0,0
15.05.2019 04:00:00 7,7 1,7 4,0 16,0 14,0 4 2 6 3 OZO 1015,9 20 0 0,0
15.05.2019 03:00:00 9,6 1,2 5,9 16,0 14,0 4 2 13 7 O 1016,0 20 0 0,0
15.05.2019 02:00:00 10,9 1,7 7,8 16,0 13,9 8 4 12 6 ONO 1016,5 20 0 0,0
15.05.2019 01:00:00 13,5 1,5 10,8 16,0 13,9 6 4 13 7 NO 1016,7 20 0 0,0
15.05.2019 00:00:00 15,2 -0,6 11,7 16,0 13,9 4 2 14 8 N 1016,7 20 0 0,0
14.05.2019 23:00:00 17,4 -0,8 15,6 15,9 13,9 11 6 25 14 NO 1016,7 20 0 0,0
14.05.2019 22:00:00 19,7 -2,0 15,4 15,8 13,9 13 7 31 17 NNO 1016,2 20 0 0,0
14.05.2019 21:00:00 20,7 3,0 18,8 15,7 13,9 8 4 24 13 WNW 1015,6 20 45 0,0
14.05.2019 20:00:00 22,7 3,7 22,5 15,6 13,9 14 8 25 14 W 1015,0 20 60 0,0
14.05.2019 19:00:00 23,8 0,8 28,1 15,5 13,9 15 8 27 14 NNW 1015,0 20 60 0,0
14.05.2019 18:00:00 23,8 1,4 28,5 15,4 13,9 15 8 32 17 NNW 1015,3 20 60 0,0
14.05.2019 17:00:00 23,6 1,2 29,1 15,3 13,9 13 7 29 16 NW 1015,7 20 60 0,0
14.05.2019 16:00:00 23,2 2,6 27,4 15,2 13,9 10 5 28 15 NNW 1016,2 20 60 0,0
14.05.2019 15:00:00 22,1 1,1 27,5 15,1 13,9 11 6 27 14 WNW 1017,0 20 60 0,0
14.05.2019 14:00:00 21,3 -0,1 25,8 15,1 13,9 14 7 29 15 N 1017,7 20 60 0,0
14.05.2019 13:00:00 19,6 -0,4 25,4 15,1 13,9 14 8 29 16 N 1018,5 20 60 0,0
14.05.2019 12:00:00 17,9 1,4 23,2 15,2 13,9 10 5 25 14 NNW 1019,3 20 60 0,0
14.05.2019 11:00:00 16,0 3,7 22,7 15,2 13,9 6 4 14 8 NNW 1020,1 20 60 0,0
14.05.2019 10:00:00 15,1 2,6 18,8 15,3 13,9 2 1 10 5 NNO 1020,8 20 60 0,0
14.05.2019 09:00:00 12,3 2,7 12,7 15,4 13,9 3 2 10 5 N 1021,5 20 60 0,0
14.05.2019 08:00:00 9,0 4,2 6,2 15,4 13,9 6 4 9 5 ONO 1022,0 20 60 0,0
14.05.2019 07:00:00 5,7 3,5 2,9 15,5 13,9 2 1 8 4 OZO 1022,4 20 10 0,0
14.05.2019 06:00:00 5,3 3,1 2,4 15,5 13,9 4 2 8 5 O 1022,5 20 0 0,0
14.05.2019 05:00:00 5,8 3,1 2,8 15,6 13,9 0 0 5 3 N 1022,7 20 0 0,0

tt = temperatuur
td = dauwpunt
tt 5cm = temperatuur 5cm
tt -20cm = temperatuur -20cm
tt -100cm = temperatuur -100cm
ff = windsnelheid
fx = windstoten
dd = windrichting
ppp = luchtdruk
vv = zicht
sd = Zonneschijnduur
rr = neerslag

Weerstations in de omgeving